Temp
15 15 15 15 15 15 14 14 13 11 10 11 9 13 13 13 13 12 11 10 9 8 7 7 7 7 8 8 8 8 8 8 8 8 7 7 6 5 5 6 5 5 4
15 15 15 14 14 14 14 14 13 13 12 11 10 11 12 13 13 12 11 10 8 7 6 6 6 6 6 7 7 7 7 7 8 6 6 5 5 4 4 3 3 3 3
14 14 14 14 14 13 13 13 13 12 12 12 11 11 10 9 11 11 9 8 8 8 6 5 5 5 5 6 7 7 7 6 7 7 5 5 4 3 2 2 1 1 1
14 14 14 14 13 13 13 13 13 13 12 12 11 10 8 11 11 10 8 7 6 7 6 6 6 5 4 5 5 6 6 6 6 6 5 4 4 2 1 0 -0 -0 -0
13 13 13 13 13 13 13 13 13 12 12 12 12 12 12 12 11 11 8 6 6 5 5 5 5 5 4 4 4 5 5 5 5 5 4 4 2 1 1 0 -0 -1 -1
13 13 13 13 13 13 13 13 13 13 12 12 12 12 12 11 11 10 10 6 5 5 5 4 4 4 4 4 4 4 5 5 5 4 3 2 2 1 2 0 -0 -1 -1
12 12 12 12 12 12 12 12 12 12 13 12 12 11 11 10 10 8 6 5 5 5 4 4 3 3 3 3 3 4 3 3 3 2 2 2 2 1 1 0 -0 -1 -1
11 11 11 11 10 10 10 11 11 11 11 10 9 8 9 9 7 6 5 5 5 4 4 3 3 3 2 3 3 2 2 2 1 1 1 1 1 1 1 0 -1 -2 -3
9 9 8 8 8 8 8 7 7 7 8 8 7 6 6 7 6 4 4 3 4 3 3 2 2 2 2 1 1 0 -0 -0 -0 0 -0 -0 -0 -0 -0 -1 -2 -3 -3
7 6 6 7 6 6 6 6 6 5 6 6 6 5 4 3 3 3 3 2 3 2 2 1 1 1 0 0 -0 -1 -2 -2 -1 -1 -1 -1 -1 -1 -1 -1 -2 -2 -3
5 4 4 5 5 4 4 4 5 5 4 4 3 2 2 2 3 2 2 2 3 2 1 0 0 0 -0 -0 -0 -1 -1 -2 -2 -2 -3 -3 -2 -2 -2 -2 -2 -2 -2
3 3 3 3 3 4 4 4 3 2 2 2 2 2 2 1 2 2 2 2 2 1 0 -0 -0 -0 -1 -1 -1 -2 -2 -2 -3 -3 -3 -3 -4 -3 -3 -2 -2 -2 -2
1 1 1 1 1 1 2 1 1 1 1 1 1 1 1 1 2 2 1 1 1 0 0 -0 -1 -2 -2 -2 -2 -2 -2 -3 -3 -3 -4 -4 -5 -4 -3 -3 -3 -3 -3
0 0 0 0 1 1 1 1 1 0 0 0 -0 -0 0 0 1 1 1 0 -0 -1 -1 -2 -2 -2 -2 -3 -3 -3 -3 -3 -3 -4 -4 -5 -5 -5 -5 -5 -5 -6 -6
-1 -0 -0 0 1 1 1 1 0 0 -0 -0 -1 -1 -1 -1 0 1 0 -0 -1 -2 -2 -3 -3 -3 -4 -3 -3 -3 -3 -3 -4 -5 -5 -5 -6 -6 -6 -6 -6 -6 -7
-1 -1 -1 -0 0 0 0 -0 -0 -0 -0 -0 -1 -2 -2 -2 -1 -0 -0 -1 -2 -2 -3 -3 -3 -3 -3 -3 -3 -3 -3 -3 -4 -5 -5 -5 -6 -6 -6 -6 -6 -5 -6
-1 -1 -1 -1 -1 -1 -1 -1 -1 -1 -1 -1 -1 -1 -2 -2 -2 -1 -1 -2 -2 -3 -3 -3 -3 -3 -3 -3 -3 -3 -3 -4 -4 -5 -5 -5 -5 -6 -6 -5 -5 -5 -4
-2 -1 -1 -1 -1 -1 -1 -1 -1 -1 -1 -1 -1 -2 -2 -2 -2 -1 -2 -2 -3 -2 -2 -3 -3 -3 -3 -4 -4 -4 -4 -4 -4 -4 -4 -4 -5 -5 -5 -5 -5 -5 -5
-2 -2 -1 -1 -1 -1 -1 -1 -1 -1 -1 -1 -1 -2 -2 -2 -2 -2 -2 -3 -3 -2 -2 -3 -3 -3 -4 -4 -4 -4 -5 -4 -4 -4 -4 -4 -5 -5 -5 -5 -5 -5 -5
-2 -2 -1 -1 -1 -1 -1 -1 -1 -1 -1 -1 -2 -2 -3 -2 -2 -3 -3 -2 -2 -2 -2 -3 -3 -4 -4 -4 -4 -5 -5 -4 -4 -4 -5 -5 -4 -5 -4 -4 -5 -5 -6
-2 -2 -1 -2 -1 -1 -1 -1 -1 -1 -1 -1 -2 -3 -2 -2 -2 -2 -2 -2 -2 -2 -3 -3 -3 -4 -4 -4 -5 -5 -5 -5 -5 -5 -5 -5 -5 -5 -5 -5 -5 -6 -6
-2 -2 -2 -2 -1 -1 -1 -1 -1 -1 -1 -2 -3 -3 -3 -2 -3 -3 -3 -3 -3 -3 -3 -3 -4 -4 -4 -5 -5 -5 -5 -5 -5 -5 -5 -5 -5 -5 -6 -6 -6 -6 -7
-3 -2 -2 -2 -2 -1 -1 -1 -2 -2 -1 -2 -3 -3 -3 -3 -3 -3 -3 -3 -3 -3 -3 -4 -4 -4 -4 -5 -5 -5 -5 -5 -5 -5 -5 -6 -6 -6 -6 -7 -7 -7 -8
-3 -3 -2 -2 -2 -2 -1 -2 -2 -2 -2 -2 -3 -3 -2 -3 -3 -3 -3 -4 -4 -4 -4 -4 -4 -4 -5 -5 -5 -5 -5 -5 -5 -5 -5 -6 -6 -7 -7 -7 -8 -8 -9
-3 -3 -3 -2 -2 -2 -2 -1 -2 -2 -2 -2 -3 -3 -3 -3 -3 -4 -4 -4 -4 -4 -4 -4 -5 -5 -5 -5 -5 -5 -5 -5 -5 -6 -6 -6 -7 -7 -8 -9 -9 -10 -11
-4 -4 -3 -3 -2 -2 -2 -2 -2 -2 -2 -2 -2 -3 -3 -3 -4 -4 -4 -4 -4 -4 -4 -5 -5 -5 -5 -5 -5 -6 -6 -6 -6 -7 -7 -8 -8 -9 -10 -10 -11 -12 -12
Height
771 768 766 765 763 761 757 755 753 751 750 742 742 740 734 734 734 733 735 734 733 732 732 731 729 728 723 719 718 719 719 720 722 726 732 738 747 749 753 763 771 777 787
768 765 763 762 759 756 754 751 748 745 743 745 745 739 733 726 730 726 728 729 728 725 727 725 721 722 717 715 713 710 711 713 715 718 722 728 735 742 747 758 765 771 783
765 763 760 757 755 752 750 748 745 742 739 737 735 733 728 731 732 723 722 723 722 721 721 719 714 714 711 709 706 702 702 705 707 711 713 720 730 737 748 757 763 769 778
761 758 755 752 750 746 744 742 739 736 733 730 726 722 729 727 725 720 720 718 719 714 713 707 704 704 704 701 699 696 695 697 700 704 708 715 722 733 743 749 761 766 773
756 753 749 746 743 740 738 736 733 730 727 723 719 716 715 716 715 715 713 714 712 708 704 701 700 699 697 695 692 690 689 690 693 698 705 713 719 729 735 744 752 762 771
750 747 744 741 738 734 730 727 725 723 719 716 715 714 714 714 713 709 708 708 704 702 698 694 694 693 689 687 685 683 683 685 689 695 700 704 712 719 729 737 747 759 769
745 741 738 735 732 728 725 721 718 715 712 709 709 708 708 705 705 705 704 703 699 695 693 690 688 688 687 685 683 682 683 683 685 690 696 701 706 711 720 733 739 748 757
740 736 734 732 728 726 722 717 712 710 708 706 706 710 707 700 701 701 700 697 694 690 689 686 685 686 684 684 683 684 684 686 690 694 697 701 706 711 719 727 737 748 758
738 735 732 730 727 723 720 716 712 710 708 703 703 702 699 696 696 696 695 691 688 686 685 684 682 683 683 683 683 684 686 690 694 697 700 703 708 712 718 726 739 747 760
737 734 730 727 723 720 717 714 710 707 703 699 696 696 696 693 691 690 689 686 684 683 682 681 681 680 681 682 683 684 687 690 694 698 703 706 711 716 721 729 735 745 755
735 731 727 723 719 716 711 711 706 701 697 697 695 693 692 690 686 684 683 681 680 679 679 678 678 679 678 683 684 685 688 691 695 699 705 709 714 720 725 730 738 742 752
732 727 723 719 715 712 708 705 702 699 696 693 691 688 687 684 681 679 677 677 676 676 676 677 678 679 680 683 686 688 692 694 698 703 709 715 719 723 727 733 742 747 752
729 724 720 715 712 708 705 701 698 695 692 689 687 684 681 678 676 675 673 672 673 673 674 674 676 680 683 685 689 692 695 699 704 708 714 719 724 728 732 736 743 750 756
726 721 717 712 707 703 700 697 695 692 689 686 683 679 676 674 671 670 669 669 670 671 673 675 678 681 683 689 693 696 699 703 707 712 718 724 730 734 738 742 746 752 757
724 718 712 708 703 700 697 694 691 688 687 682 679 677 674 670 668 667 666 666 667 669 673 677 680 684 684 692 696 700 703 707 711 716 721 726 733 737 742 746 750 755 759
722 715 710 705 701 697 693 689 687 685 682 678 675 672 668 666 664 662 662 663 664 667 671 675 680 683 686 691 695 701 705 709 715 719 723 728 734 739 744 748 753 758 762
720 713 708 704 699 696 692 688 684 680 678 674 670 667 664 661 658 658 658 661 663 666 669 674 677 682 687 690 696 702 706 712 717 721 726 731 735 740 745 750 756 760 764
717 711 707 703 698 694 690 687 684 680 675 671 667 664 660 656 654 655 657 661 665 668 669 673 678 682 687 691 697 703 708 714 719 723 727 732 737 741 747 751 756 760 765
714 709 705 701 697 692 688 685 682 678 675 671 666 663 659 655 653 654 658 661 665 667 670 674 678 682 687 692 698 705 710 715 720 725 729 734 738 743 747 752 757 761 765
712 708 703 698 694 690 686 683 680 677 674 671 668 665 661 659 658 659 662 664 666 668 672 676 680 684 689 694 700 705 711 717 721 726 731 735 739 743 748 751 755 759 764
710 705 701 696 691 687 684 681 678 676 673 671 669 667 665 663 663 664 664 666 668 671 674 677 681 686 690 695 700 706 712 717 721 726 731 736 740 743 746 750 755 759 761
707 703 698 694 689 684 681 678 676 674 672 671 670 669 668 667 667 667 667 669 671 674 676 679 683 687 691 695 700 706 711 716 721 726 731 735 738 741 745 749 752 755 758
704 699 695 691 687 682 678 675 674 673 671 670 670 670 670 670 670 670 671 673 675 677 679 682 685 689 693 698 702 706 710 714 719 724 727 731 735 740 744 748 751 754 758
700 696 692 687 683 679 675 673 671 670 669 669 669 670 670 670 671 671 673 675 676 679 682 684 687 690 694 699 703 707 711 715 719 723 726 730 735 739 744 747 751 754 756
697 693 688 684 679 675 672 669 668 667 667 667 667 668 669 670 671 673 674 676 678 680 683 686 689 693 696 700 704 707 711 714 718 722 726 731 735 739 743 746 749 751 753
692 689 684 680 676 672 668 665 663 662 662 663 664 665 666 668 670 672 674 677 679 681 684 687 691 694 698 701 704 708 711 715 719 723 727 731 735 738 742 745 747 749 750
Wind_Speed
25 16 20 19 19 24 21 20 22 23 29 34 43 36 19 18 21 18 22 20 18 18 17 18 23 28 30 31 34 36 35 34 15 22 30 30 36 34 39 40 40 38 38
18 21 18 19 18 20 22 19 20 25 27 30 39 40 25 20 21 19 20 22 22 19 20 20 25 24 26 30 31 34 36 38 33 12 28 31 40 38 42 41 40 41 42
20 24 24 23 22 22 22 25 27 25 30 30 24 30 28 26 33 22 17 20 22 24 25 23 22 22 25 24 30 34 36 35 32 23 18 30 35 36 35 32 36 35 38
23 24 24 25 26 24 25 28 31 31 28 26 25 20 30 29 27 21 18 20 24 26 29 26 24 23 25 26 27 28 29 24 28 23 20 26 33 33 36 36 30 34 33
25 25 26 26 26 27 29 30 31 30 30 31 32 23 23 27 27 28 20 21 26 27 27 26 27 24 23 27 29 27 25 24 19 23 20 23 26 33 32 33 32 33 34
25 26 28 29 30 29 30 29 30 31 33 32 22 17 21 25 27 28 24 22 26 27 27 25 24 20 21 23 21 21 31 29 23 22 22 23 28 37 32 35 32 31 15
25 27 27 28 29 30 31 28 27 27 30 20 19 16 20 26 25 18 15 21 26 27 25 22 21 16 13 15 14 15 9 15 26 29 27 31 30 40 34 34 35 38 24
25 25 26 26 26 28 29 28 21 20 21 18 21 28 23 20 20 21 24 24 25 25 23 20 18 15 10 13 11 6 14 19 20 20 21 22 25 34 34 32 30 23 25
26 28 27 29 30 28 28 25 24 25 22 17 17 20 24 29 29 23 23 23 23 24 20 17 16 14 11 14 13 15 14 15 16 18 17 17 22 28 32 37 31 29 20
26 29 31 29 26 24 25 25 20 22 25 21 24 29 29 30 28 25 21 20 21 20 17 13 15 14 9 15 16 19 18 17 17 15 15 20 23 30 36 37 35 27 22
30 30 28 27 25 24 23 25 24 23 24 26 27 26 25 26 30 25 20 19 20 19 15 14 13 15 15 15 15 18 20 20 22 24 25 27 31 33 30 31 33 35 22
30 28 29 27 26 23 22 23 22 24 23 22 22 25 25 27 26 22 19 16 18 18 15 14 14 17 17 17 19 22 28 30 30 27 25 24 26 29 30 31 30 27 21
27 28 27 27 25 27 23 25 22 20 20 19 17 21 22 23 22 18 15 13 16 15 13 12 15 20 20 19 25 29 30 29 25 23 22 22 27 31 32 31 31 28 28
26 26 26 26 26 25 23 22 20 18 16 17 16 16 18 19 19 15 14 11 14 12 12 17 26 27 24 28 29 26 27 26 25 24 24 28 27 26 27 28 30 29 28
25 24 24 22 24 22 24 21 20 22 21 21 19 17 17 17 17 16 15 16 18 18 24 26 24 23 27 22 21 22 25 26 24 26 27 26 23 22 21 20 23 21 17
23 20 21 21 20 21 20 22 20 20 21 22 22 22 22 23 22 17 15 18 22 28 27 22 19 21 22 21 22 22 22 22 22 24 23 22 21 21 21 19 19 17 18
22 22 20 20 18 18 17 15 17 20 21 19 18 17 19 19 17 14 15 21 26 30 19 20 21 21 20 22 21 21 20 22 24 23 23 22 22 21 21 20 19 16 15
24 23 21 20 20 18 16 16 15 15 16 16 18 17 17 13 11 10 18 23 25 17 19 21 22 22 24 25 24 23 22 23 22 23 23 23 23 23 22 20 18 15 14
24 22 22 21 19 19 19 17 16 15 13 15 16 13 15 7 3 12 22 20 19 13 17 20 23 25 25 25 27 22 23 22 23 23 24 23 24 22 20 20 18 16 14
21 23 24 22 20 19 16 14 14 13 13 11 9 10 8 5 7 16 12 16 13 16 18 21 23 24 25 25 23 24 22 24 25 23 23 22 21 21 18 18 17 16 14
23 23 22 21 19 17 16 14 14 13 11 6 4 5 5 5 8 8 12 14 17 19 21 23 25 25 26 25 27 25 24 24 24 25 23 23 19 17 17 16 14 12 10
20 22 21 21 21 19 15 14 14 13 9 2 1 1 4 8 9 12 15 16 18 20 22 24 24 25 28 28 26 25 25 25 23 25 23 22 20 16 14 13 11 8 5
21 21 21 20 21 21 16 15 13 13 10 6 7 6 5 6 8 10 12 15 17 20 22 23 24 25 25 24 23 25 26 25 24 23 24 21 19 17 13 11 9 8 6
19 21 21 22 21 20 17 14 14 14 11 9 10 10 8 9 10 11 13 14 16 17 19 22 23 24 24 24 23 22 21 22 22 20 20 19 17 14 12 11 10 10 8
21 22 21 22 21 20 19 15 14 14 14 13 13 13 12 12 13 13 15 16 18 19 20 22 23 23 24 24 23 21 21 21 21 21 19 18 15 14 13 11 10 9 7
21 22 22 21 22 20 20 17 15 15 15 16 16 17 17 17 17 16 17 19 19 20 21 21 21 23 23 22 22 20 21 22 22 21 19 18 16 14 13 12 10 8 7
Wind_Direction
302 317 321 323 325 315 314 320 313 320 329 343 318 278 264 282 285 288 291 284 280 280 276 280 283 278 260 243 230 223 220 217 220 210 203 198 188 181 180 190 189 187 193
319 312 296 306 315 318 316 318 318 319 319 310 307 317 311 301 287 278 275 278 276 274 276 276 277 273 268 260 240 227 223 221 221 198 187 183 183 181 176 176 174 179 185
299 301 306 306 298 300 306 312 306 302 308 295 308 314 326 323 301 295 282 272 272 278 273 271 275 271 271 268 251 233 226 222 217 210 184 179 179 172 168 171 171 168 174
302 302 295 290 294 291 283 285 285 289 293 293 299 313 311 292 285 295 283 279 282 283 277 278 284 280 275 272 264 249 224 214 212 204 175 173 170 168 169 162 162 164 164
303 300 297 293 291 291 291 291 287 276 275 281 284 285 285 285 296 293 284 281 282 283 283 281 275 285 282 278 264 255 226 205 190 196 171 172 166 165 170 168 160 162 170
296 295 297 298 295 291 288 284 283 282 273 272 272 289 305 302 292 289 286 279 286 283 286 287 280 287 294 272 265 242 222 205 196 178 173 173 172 172 170 167 160 160 154
310 309 304 299 294 290 286 291 292 290 287 272 287 294 302 303 305 291 294 294 286 281 282 285 284 280 285 265 245 215 213 185 183 179 179 182 175 175 168 167 170 172 171
310 316 320 319 319 315 312 307 301 312 310 296 298 304 297 301 302 304 297 291 284 279 276 275 269 255 282 223 234 247 161 184 187 188 178 175 177 174 174 173 163 147 139
322 320 321 323 320 320 315 306 324 323 314 323 311 303 306 298 300 294 293 289 281 274 269 261 252 233 255 242 215 189 173 167 182 189 189 180 177 169 161 146 134 126 133
329 323 316 311 312 312 317 311 308 301 303 308 301 299 298 293 297 295 289 285 274 266 262 237 231 225 245 223 195 167 140 153 162 169 182 189 182 170 169 164 154 143 133
319 314 311 312 309 304 302 301 306 308 311 299 297 290 287 287 289 292 282 279 267 255 238 214 220 218 181 188 188 172 153 148 142 141 132 134 139 145 150 153 160 158 144
316 315 313 309 309 297 299 299 304 302 294 288 285 284 288 289 288 285 282 276 260 249 232 219 210 199 186 172 166 156 144 134 123 117 117 113 114 119 128 145 153 149 149
316 314 312 308 307 302 300 301 296 292 282 278 283 291 292 289 290 292 291 271 239 239 236 215 186 169 158 159 154 150 144 131 124 117 113 107 116 124 126 125 133 138 137
313 308 310 311 307 307 302 301 292 289 284 284 280 280 286 288 290 290 289 241 219 216 189 169 154 147 147 142 140 139 135 132 127 121 115 123 129 130 127 134 128 132 131
320 312 308 308 312 311 310 306 305 304 295 289 287 287 291 289 289 289 276 226 203 180 151 141 139 138 135 140 132 130 130 129 124 127 128 129 128 132 130 139 142 143 137
319 319 319 316 315 315 314 312 313 309 310 303 295 293 295 284 284 277 257 228 195 169 153 151 149 147 145 141 135 135 133 132 132 132 131 132 133 134 136 139 143 144 142
315 319 319 319 317 315 313 310 314 318 317 314 314 298 305 293 281 265 231 203 185 165 158 156 152 151 142 136 138 140 135 139 142 139 141 145 142 144 146 148 156 157 151
322 316 315 313 310 311 310 312 308 312 316 320 323 318 318 303 273 247 200 176 164 169 158 154 152 149 143 140 143 142 140 145 147 149 149 152 151 150 154 154 158 159 161
326 318 316 308 307 307 306 307 307 305 312 312 329 340 342 327 266 191 176 164 169 160 152 150 149 148 146 144 147 145 147 148 151 151 153 156 154 157 157 161 164 168 168
328 324 320 308 305 307 301 301 303 308 307 320 347 352 5 69 116 149 160 162 160 144 145 143 145 146 145 147 150 149 153 155 155 153 155 157 158 161 161 161 161 159 165
328 323 317 317 300 297 301 299 300 302 305 324 3 5 18 95 123 142 142 149 141 143 144 146 147 149 151 151 149 151 152 153 152 154 154 161 158 153 159 160 159 154 152
324 321 316 315 310 296 293 298 298 292 293 248 144 104 105 115 105 104 117 128 139 147 150 148 148 151 155 154 153 153 154 157 157 158 157 161 163 158 149 148 146 147 159
319 318 316 313 312 303 291 287 283 284 272 226 184 187 178 158 148 143 143 150 157 159 159 156 153 153 157 157 158 162 160 162 162 161 160 158 157 156 155 158 169 176 187
315 314 314 311 307 304 291 280 276 270 262 216 200 204 199 183 174 167 166 166 165 166 167 164 163 161 161 162 162 164 163 163 166 165 165 163 158 160 172 179 179 181 177
312 309 307 312 307 304 295 274 269 256 248 224 209 206 197 185 173 168 169 164 161 161 162 163 164 165 167 164 162 163 168 171 171 167 165 163 165 177 186 183 173 160 168
305 305 304 306 305 302 294 277 261 249 237 223 216 203 190 183 180 183 183 176 169 166 164 166 170 170 167 165 166 168 170 173 170 169 163 168 169 170 180 188 197 199 202